Weather History for KETH - February, 2014

Change the Weather History Date:

Thursday, February 13, 2014

  Actual Average Record
Temperature  
Mean Temperature 20 °F -  
Max Temperature 37 °F 26 °F 55 °F (1983)
Min Temperature 1 °F 5 °F -20 °F (1970)
Degree Days  
Heating Degree Days 45    
Moisture  
Dew Point 9 °F    
Average Humidity 79    
Maximum Humidity 86    
Minimum Humidity 67    
Precipitation  
Precipitation 0.00 in - - ()
Sea Level Pressure  
Sea Level Pressure 29.64 in    
Wind  
Wind Speed 21 mph (WNW)    
Max Wind Speed 32 mph    
Max Gust Speed 44 mph    
Visibility 8 miles    
Events Snow    
Averages and records for this station are not official NWS values.
T = Trace of Precipitation, MM = Missing Value Source: NWS Daily Summary

Daily Weather History Graph

Daily Weather History Graph

Search for Another Location

Airport or City:

Trip Planner

Search our weather history database for the weather conditions in past years. The results will help you decide how hot, cold, wet, or windy it might be!

Date:

Astronomy

Feb. 13, 2014 Rise Set
Actual Time 7:31 AM CST 5:49 PM CST
Civil Twilight 7:00 AM CST 6:20 PM CST
Nautical Twilight 6:25 AM CST 6:55 PM CST
Astronomical Twilight 5:51 AM CST 7:30 PM CST
Moon 4:59 PM CST (2/13) 6:25 AM CST (2/13)
Length of Visible Light 11h 20m
Length of Day
10h 18m
Waxing Gibbous, 99% of the Moon is Illuminated
Feb 13
Waxing Gibbous
Feb 14
Full
Feb 22
Last Quarter
Mar 1
New
Mar 8
First Quarter

Hourly Weather History & Observations

Time (CST) Temp. Windchill Dew Point Humidity Pressure Visibility Wind Dir Wind Speed Gust Speed Precip Events Conditions
12:14 AM 19.4 °F 1.4 °F 15.8 °F 86% 29.49 in 5.0 mi SE 26.5 mph 35.7 mph N/A Snow Light Snow
12:34 AM 21.2 °F 4.5 °F 17.6 °F 86% 29.46 in 10.0 mi SE 24.2 mph 31.1 mph N/A   Mostly Cloudy
12:54 AM 21.2 °F 4.9 °F 17.6 °F 86% 29.45 in 10.0 mi SE 23.0 mph 27.6 mph N/A   Overcast
1:14 AM 21.2 °F 5.6 °F 17.6 °F 86% 29.44 in 10.0 mi SE 20.7 mph - N/A   Mostly Cloudy
1:34 AM 23.0 °F 7.2 °F 19.4 °F 86% 29.41 in 10.0 mi SE 23.0 mph 27.6 mph N/A   Overcast
1:54 AM 23.0 °F 9.2 °F 19.4 °F 86% 29.40 in 10.0 mi SE 17.3 mph - N/A   Overcast
2:14 AM 24.8 °F 12.9 °F 21.2 °F 86% 29.39 in 10.0 mi SSE 13.8 mph 24.2 mph N/A   Overcast
2:34 AM 26.6 °F 15.7 °F 21.2 °F 80% 29.38 in 10.0 mi SSE 12.7 mph 20.7 mph N/A   Overcast
2:54 AM 28.4 °F 18.5 °F 23.0 °F 80% 29.38 in 10.0 mi SSE 11.5 mph 20.7 mph N/A   Mostly Cloudy
3:14 AM 28.4 °F 19.1 °F 24.8 °F 86% 29.38 in 10.0 mi South 10.4 mph - N/A   Scattered Clouds
3:34 AM 30.2 °F 21.9 °F 24.8 °F 80% 29.37 in 10.0 mi SSW 9.2 mph - N/A   Mostly Cloudy
3:54 AM 33.8 °F 25.8 °F 28.4 °F 81% 29.37 in 10.0 mi SW 10.4 mph - N/A   Overcast
4:14 AM 33.8 °F 26.4 °F 28.4 °F 81% 29.37 in 10.0 mi WSW 9.2 mph - N/A   Overcast
4:34 AM 37.4 °F 29.3 °F 30.2 °F 75% 29.37 in 10.0 mi West 12.7 mph 19.6 mph N/A   Mostly Cloudy
4:54 AM 37.4 °F 27.8 °F 30.2 °F 75% 29.38 in 10.0 mi West 17.3 mph 26.5 mph N/A   Clear
5:14 AM 35.6 °F 23.7 °F 28.4 °F 75% 29.39 in 10.0 mi West 24.2 mph 34.5 mph N/A   Scattered Clouds
5:34 AM 32.0 °F 17.2 °F 26.6 °F 80% 29.41 in 7.0 mi West 32.2 mph 40.3 mph N/A   Scattered Clouds
5:54 AM 26.6 °F 10.3 °F 23.0 °F 86% 29.44 in 10.0 mi West 29.9 mph 39.1 mph N/A   Mostly Cloudy
6:14 AM 24.8 °F 8.7 °F 19.4 °F 80% 29.46 in 7.0 mi West 26.5 mph 42.6 mph N/A   Mostly Cloudy
6:34 AM 19.4 °F 0.2 °F 15.8 °F 86% 29.49 in 4.0 mi West 31.1 mph 42.6 mph N/A   Mostly Cloudy
6:54 AM 17.6 °F -2.2 °F 14.0 °F 86% 29.52 in 4.0 mi West 31.1 mph 42.6 mph N/A   Overcast
7:14 AM 17.6 °F -2.2 °F 12.2 °F 79% 29.54 in 2.5 mi WNW 31.1 mph 41.4 mph N/A Snow Light Snow
7:34 AM 15.8 °F -4.4 °F 10.4 °F 79% 29.56 in 4.0 mi WNW 29.9 mph 42.6 mph N/A Snow Light Snow
7:54 AM 15.8 °F -3.1 °F 10.4 °F 79% 29.58 in 3.0 mi WNW 25.3 mph 40.3 mph N/A Snow Light Snow
8:14 AM 15.8 °F -4.1 °F 10.4 °F 79% 29.59 in 5.0 mi WNW 28.8 mph 39.1 mph N/A   Haze
8:34 AM 14.0 °F -7.4 °F 8.6 °F 79% 29.62 in 7.0 mi WNW 32.2 mph 41.4 mph N/A   Overcast
8:54 AM 12.2 °F -8.6 °F 8.6 °F 85% 29.63 in 7.0 mi WNW 27.6 mph 43.7 mph N/A   Overcast
9:14 AM 12.2 °F -8.9 °F 6.8 °F 79% 29.64 in 7.0 mi WNW 28.8 mph 38.0 mph N/A   Overcast
9:34 AM 10.4 °F -12.0 °F 6.8 °F 85% 29.64 in 7.0 mi WNW 31.1 mph 40.3 mph N/A   Scattered Clouds
9:54 AM 10.4 °F -11.7 °F 5.0 °F 79% 29.66 in 7.0 mi WNW 29.9 mph 38.0 mph N/A   Mostly Cloudy
10:14 AM 10.4 °F -12.0 °F 3.2 °F 73% 29.68 in 7.0 mi WNW 31.1 mph 39.1 mph N/A   Overcast
10:34 AM 10.4 °F -10.3 °F 5.0 °F 79% 29.69 in 4.0 mi WNW 25.3 mph 32.2 mph N/A   Haze
10:54 AM 10.4 °F -9.1 °F 5.0 °F 79% 29.70 in 7.0 mi NW 21.9 mph 29.9 mph N/A   Overcast
11:14 AM 8.6 °F -12.3 °F 3.2 °F 79% 29.71 in 5.0 mi WNW 24.2 mph 32.2 mph N/A   Haze
11:34 AM 8.6 °F -12.7 °F 3.2 °F 79% 29.72 in 5.0 mi WNW 25.3 mph 32.2 mph N/A   Haze
11:54 AM 8.6 °F -13.4 °F 3.2 °F 79% 29.72 in 7.0 mi NW 27.6 mph 34.5 mph N/A   Overcast
12:14 PM 8.6 °F -13.1 °F 3.2 °F 79% 29.75 in 10.0 mi NW 26.5 mph 32.2 mph N/A   Overcast
12:34 PM 10.4 °F -11.0 °F 3.2 °F 73% 29.74 in 10.0 mi WNW 27.6 mph 34.5 mph N/A   Overcast
12:54 PM 10.4 °F -9.9 °F 3.2 °F 73% 29.75 in 10.0 mi NW 24.2 mph 31.1 mph N/A   Overcast
1:34 PM 10.4 °F -9.5 °F 3.2 °F 73% 29.76 in 10.0 mi WNW 23.0 mph 27.6 mph N/A   Overcast
1:54 PM 10.4 °F -7.7 °F 3.2 °F 73% 29.77 in 7.0 mi WNW 18.4 mph 24.2 mph N/A   Overcast
2:14 PM 10.4 °F -8.6 °F 3.2 °F 73% 29.76 in 10.0 mi NW 20.7 mph - N/A   Overcast
2:34 PM 10.4 °F -6.6 °F 3.2 °F 73% 29.77 in 5.0 mi NW 16.1 mph 20.7 mph N/A   Haze
2:54 PM 10.4 °F -8.2 °F 3.2 °F 73% 29.78 in 10.0 mi NW 19.6 mph 24.2 mph N/A   Overcast
3:14 PM 10.4 °F -7.7 °F 1.4 °F 67% 29.79 in 10.0 mi NW 18.4 mph 24.2 mph N/A   Mostly Cloudy
3:34 PM 8.6 °F -8.9 °F 1.4 °F 73% 29.80 in 10.0 mi NW 16.1 mph 24.2 mph N/A   Mostly Cloudy
3:54 PM 8.6 °F -10.0 °F 1.4 °F 73% 29.80 in 10.0 mi NW 18.4 mph 25.3 mph N/A   Mostly Cloudy
4:14 PM 8.6 °F -10.5 °F 1.4 °F 73% 29.80 in 10.0 mi NW 19.6 mph 23.0 mph N/A   Scattered Clouds
4:34 PM 8.6 °F -8.3 °F 3.2 °F 79% 29.81 in 10.0 mi NW 15.0 mph 20.7 mph N/A   Mostly Cloudy
7:19 PM 5.0 °F -5.6 °F -0.4 °F 78% 29.82 in 10.0 mi NW 5.8 mph - N/A   Clear
7:34 PM 5.0 °F -6.9 °F -0.4 °F 78% 29.83 in 10.0 mi NW 6.9 mph - N/A   Clear
7:54 PM 5.0 °F -9.1 °F -0.4 °F 78% 29.83 in 10.0 mi NW 9.2 mph - N/A   Clear
8:14 PM 5.0 °F -9.1 °F -0.4 °F 78% 29.84 in 10.0 mi NW 9.2 mph - N/A   Clear
8:34 PM 5.0 °F -10.0 °F -0.4 °F 78% 29.84 in 10.0 mi NW 10.4 mph - N/A   Clear
8:54 PM 5.0 °F -8.1 °F -0.4 °F 78% 29.85 in 10.0 mi NW 8.1 mph - N/A   Scattered Clouds
9:14 PM 5.0 °F -11.6 °F 1.4 °F 85% 29.84 in 10.0 mi NNW 12.7 mph - N/A   Scattered Clouds
9:34 PM 5.0 °F -12.3 °F -0.4 °F 78% 29.83 in 7.0 mi NNW 13.8 mph - N/A   Scattered Clouds
9:54 PM 3.2 °F -15.3 °F -0.4 °F 85% 29.84 in 10.0 mi NNW 15.0 mph 19.6 mph N/A   Scattered Clouds
10:14 PM 3.2 °F -13.9 °F -2.2 °F 78% 29.85 in 10.0 mi NNW 12.7 mph - N/A   Clear
10:34 PM 3.2 °F -13.9 °F -2.2 °F 78% 29.86 in 10.0 mi NNW 12.7 mph - N/A   Clear
10:54 PM 3.2 °F -12.2 °F -2.2 °F 78% 29.86 in 10.0 mi NW 10.4 mph - N/A   Clear
11:14 PM 3.2 °F -13.9 °F -2.2 °F 78% 29.85 in 10.0 mi NNW 12.7 mph - N/A   Clear
11:34 PM 3.2 °F -10.3 °F -2.2 °F 78% 29.86 in 10.0 mi NNW 8.1 mph - N/A   Clear
11:54 PM 1.4 °F -14.5 °F -2.2 °F 85% 29.85 in 10.0 mi NNW 10.4 mph - N/A   Clear